"Pseudo-MPEC" for ON01336

Created 2025 May 22 3:31:05 UT using Find_Orb

Click here for an explanation of pseudo-MPECs

 
 Astrometry: 
     ON01336* C2025 05 01.69553214 28 32.963+02 57 59.87   ~523H 22.42gWNEOCPO18
     ON01336  C2025 05 01.73025414 28 32.580+02 58 02.13   ~523H 21.99rWNEOCPO18
     ON01336  C2025 05 01.73148114 28 32.562+02 58 02.07   ~523H 21.93rWNEOCPO18

Station data:
(O18) WFST, Lenghu  (N38.607601 E93.895220).

Orbital elements:  ON01336
   Perihelion 2017 Mar 10.56603 +/- 3883 TT = 13:35:04 (JD 2457823.06603)
Epoch 2025 May  2.0 TT = JDT 2460797.5   Sa: 0.0024              AutoNEOCP
M  10.51324634 +/- 60               (J2000 ecliptic)
n   0.00353453 +/-                  Peri.  292.11796 +/- 100
a  42.6822898 +/-                   Node   173.32690 +/- 41
e   0.8511959 +/- 0.226             Incl.   23.26960 +/- 54
P 278.85059                H  9.75  G  0.15   U 10.4  SR
q 6.35129624 +/- 6.25    Q 79.0132833 +/- 1045
From 3 observations 2025 May 1 (51.8 min); mean residual 0".04
Residuals in arcseconds: 
250501 O18  .00   .00     250501 O18  .04+  .07+    250501 O18  .03-  .07-    

Ephemerides (geocentric):
Date (UTC) HH   RA             Dec           delta  r     elong  mag " sig PA
---- --------  ------------   ------------  ------ ------ -----  --- --------
2025 05 22 04  14 24 58.866   +03 14 50.11  16.207 17.071 147.6 22.2 4409  56
2025 05 22 05  14 24 58.461   +03 14 51.56  16.208 17.071 147.6 22.2 4428  56
2025 05 22 06  14 24 58.057   +03 14 53.00  16.208 17.071 147.6 22.2 4447  56
2025 05 22 07  14 24 57.653   +03 14 54.44  16.209 17.071 147.5 22.2 4466  56
2025 05 22 08  14 24 57.250   +03 14 55.88  16.209 17.072 147.5 22.2 4485  56
2025 05 22 09  14 24 56.846   +03 14 57.31  16.210 17.072 147.4 22.2 4504  56
2025 05 22 10  14 24 56.443   +03 14 58.74  16.210 17.072 147.4 22.2 4524  55
2025 05 22 11  14 24 56.039   +03 15 00.17  16.211 17.072 147.4 22.2 4543  55
2025 05 22 12  14 24 55.636   +03 15 01.60  16.211 17.072 147.3 22.2 4562  55
2025 05 22 13  14 24 55.233   +03 15 03.02  16.212 17.072 147.3 22.2 4582  55
2025 05 22 14  14 24 54.831   +03 15 04.44  16.212 17.073 147.3 22.2 4602  55
2025 05 22 15  14 24 54.428   +03 15 05.86  16.213 17.073 147.2 22.2 4621  55
2025 05 22 16  14 24 54.026   +03 15 07.28  16.213 17.073 147.2 22.2 4641  55
2025 05 22 17  14 24 53.623   +03 15 08.69  16.214 17.073 147.2 22.2 4661  55
2025 05 22 18  14 24 53.221   +03 15 10.10  16.214 17.073 147.1 22.2 4681  55
2025 05 22 19  14 24 52.820   +03 15 11.51  16.215 17.073 147.1 22.2 4701  55
2025 05 22 20  14 24 52.418   +03 15 12.91  16.215 17.074 147.1 22.2 4721  55
2025 05 22 21  14 24 52.017   +03 15 14.32  16.216 17.074 147.0 22.2 4741  55
2025 05 22 22  14 24 51.615   +03 15 15.72  16.216 17.074 147.0 22.2 4761  55
2025 05 22 23  14 24 51.214   +03 15 17.11  16.217 17.074 146.9 22.2 4782  55
2025 05 23 00  14 24 50.813   +03 15 18.51  16.217 17.074 146.9 22.2 4802  55
2025 05 23 01  14 24 50.412   +03 15 19.90  16.217 17.074 146.9 22.2 4822  55
2025 05 23 02  14 24 50.012   +03 15 21.29  16.218 17.075 146.8 22.2 4843  55
2025 05 23 03  14 24 49.611   +03 15 22.68  16.218 17.075 146.8 22.2 4864  55
2025 05 23 04  14 24 49.211   +03 15 24.06  16.219 17.075 146.8 22.2 4884  55
2025 05 23 05  14 24 48.811   +03 15 25.44  16.219 17.075 146.7 22.2 4905  55
2025 05 23 06  14 24 48.411   +03 15 26.82  16.220 17.075 146.7 22.2 4926  55
2025 05 23 07  14 24 48.012   +03 15 28.20  16.220 17.075 146.7 22.2 4947  55
2025 05 23 08  14 24 47.612   +03 15 29.57  16.221 17.076 146.6 22.2 4968  55
2025 05 23 09  14 24 47.213   +03 15 30.94  16.221 17.076 146.6 22.2 4989  55
2025 05 23 10  14 24 46.814   +03 15 32.31  16.222 17.076 146.6 22.2 5010  55
2025 05 23 11  14 24 46.415   +03 15 33.68  16.222 17.076 146.5 22.2 5031  55
2025 05 23 12  14 24 46.016   +03 15 35.04  16.223 17.076 146.5 22.2 5052  55
2025 05 23 13  14 24 45.618   +03 15 36.40  16.223 17.076 146.5 22.2 5074  55
2025 05 23 14  14 24 45.219   +03 15 37.76  16.224 17.077 146.4 22.2 5095  55
2025 05 23 15  14 24 44.821   +03 15 39.11  16.224 17.077 146.4 22.2 5117  55
2025 05 23 16  14 24 44.423   +03 15 40.47  16.225 17.077 146.3 22.2 5138  55
2025 05 23 17  14 24 44.025   +03 15 41.82  16.225 17.077 146.3 22.2 5160  55
2025 05 23 18  14 24 43.628   +03 15 43.16  16.226 17.077 146.3 22.2 5182  55
2025 05 23 19  14 24 43.230   +03 15 44.51  16.226 17.077 146.2 22.2 5204  55
2025 05 23 20  14 24 42.833   +03 15 45.85  16.227 17.078 146.2 22.2 5226  54
2025 05 23 21  14 24 42.436   +03 15 47.19  16.227 17.078 146.2 22.2 5248  54
2025 05 23 22  14 24 42.039   +03 15 48.53  16.228 17.078 146.1 22.2 5270  54
2025 05 23 23  14 24 41.642   +03 15 49.86  16.228 17.078 146.1 22.2 5292  54
2025 05 24 00  14 24 41.246   +03 15 51.19  16.229 17.078 146.1 22.2 5314  54
2025 05 24 01  14 24 40.849   +03 15 52.52  16.229 17.078 146.0 22.2 5337  54
2025 05 24 02  14 24 40.453   +03 15 53.84  16.230 17.079 146.0 22.2 5359  54
2025 05 24 03  14 24 40.057   +03 15 55.17  16.230 17.079 146.0 22.2 5382  54